Weather in Uglovka

Russia / Novgorod Oblast     58°12′50″N   33°31′03″E
temp.,
°C
wind,
m/s
gust,
m/s
humid.,
%
clouds,
%
prec.,
mm/h
press.,
hPa
HPBL,
m
4 march, thu
thu400:00+1w71396100 1.1 1001930
03:00+1w61297100 4.1 1000951
06:00−3wnw4119275 1.1 1000626
09:00−4nw499166 1.1 1001594
12:00−3nw468194 0.0 1001744
15:00−3nw368297 0.1 1002747
18:00−4nw3688100 0.2 1002430
21:00−6nw279498 0.3 1003307
5 march, fri
fri500:00−7nw389293 0.0 1004383
03:00−7wnw379693 0.1 1006309
06:00−8wnw389698 0.1 1006298
09:00−7wnw369195 0.1 1008433
12:00−5nw2479100 0.1 1009729
15:00−4nw3477100 0.3 1011755
18:00−6nw368598 0.3 1012351
21:00−8nw389683 0.3 1014279
6 march, sat
sat600:00−9nnw249785 0.1 1016134
03:00−10nw129679 0.1 101797
06:00−11wnw229766 0.0 101874
09:00−9w369177 0.1 1018309
12:00−6w357696 0.1 1017848
15:00−5wsw476775 0.1 10151051
18:00−5sw4107467 0.0 10111044
21:00−5sw8169083 0.2 10071202
7 march, sun
sun700:00−4sw91890100 1.1 10011381
03:00−3wsw81691100 2.8 9961242
06:00−3sw71593100 1.8 9921192
09:00−6wnw61184100 4.6 9921277
12:00−6wnw6125836 0.1 9942347
15:00−5wsw7116868 0.3 9941488
18:00−5wsw61179100 0.9 9911196
21:00−7w51089100 2.5 990697
8 march, mon
mon800:00−9nw51090100 0.8 992806
03:00−9nnw71288100 2.1 9951028
06:00−12nw5129195 0.0 999771
09:00−12nw5108997 0.1 1002760
12:00−11nw5985100 0.1 1005785
15:00−10nw5882100 0.3 1008884
18:00−13nnw4889100 0.1 1011714
21:00−14nnw4993100 0.3 1014685